iso_date,epoch_date,Year,Hour,Min,DOY,POS_DOY,Lat,Lon,BP,Ts,Ta,has_bp,has_ts,has_ta,BuoyID,Buoy_Type,Buoy_Owner,Logistics,Hemisphere
2019-10-06T19:24:48Z,1570389889,2019,19,24,279.8089,279.8089,84.99947,134.96192,1025.8,-4.96,-5.25,yes,yes,yes,300434063387850,SIMB3,Dart,MOSAiC,North
2019-10-06T23:01:32Z,1570402892,2019,23,1,279.9594,279.9594,84.99558,135.08538,1024.5,-2.03,-7.31,yes,yes,yes,300434063387850,SIMB3,Dart,MOSAiC,North
2019-10-07T03:02:44Z,1570417364,2019,3,2,280.1269,280.1269,84.98714,135.23565,1023.3,-2.04,-7.56,yes,yes,yes,300434063387850,SIMB3,Dart,MOSAiC,North
2019-10-07T07:01:37Z,1570431698,2019,7,1,280.2928,280.2928,84.97731,135.40554,1021.4,-2.04,-7.81,yes,yes,yes,300434063387850,SIMB3,Dart,MOSAiC,North
2019-10-07T11:01:49Z,1570446109,2019,11,1,280.4596,280.4596,84.96516,135.64526,1019.5,-2.01,-8.62,yes,yes,yes,300434063387850,SIMB3,Dart,MOSAiC,North
2019-10-07T15:01:17Z,1570460478,2019,15,1,280.6259,280.6259,84.94908,135.8823,1017.1,-1.99,-8.0,yes,yes,yes,300434063387850,SIMB3,Dart,MOSAiC,North
2019-10-07T19:01:29Z,1570474889,2019,19,1,280.7927,280.7927,84.9355,136.19848,1013.9,-2.04,-5.88,yes,yes,yes,300434063387850,SIMB3,Dart,MOSAiC,North
2019-10-07T23:01:32Z,1570489292,2019,23,1,280.9594,280.9594,84.91713,136.59613,1009.1,-2.02,-3.31,yes,yes,yes,300434063387850,SIMB3,Dart,MOSAiC,North
2019-10-08T03:02:00Z,1570503721,2019,3,2,281.1264,281.1264,84.89327,136.89099,1006.0,-2.01,-2.38,yes,yes,yes,300434063387850,SIMB3,Dart,MOSAiC,North
2019-10-08T07:01:55Z,1570518115,2019,7,1,281.293,281.293,84.86895,136.97446,1005.1,-2.03,-4.44,yes,yes,yes,300434063387850,SIMB3,Dart,MOSAiC,North
2019-10-08T11:01:32Z,1570532492,2019,11,1,281.4594,281.4594,84.85071,136.95418,1005.9,-2.03,-7.56,yes,yes,yes,300434063387850,SIMB3,Dart,MOSAiC,North
2019-10-08T15:01:26Z,1570546886,2019,15,1,281.626,281.626,84.83638,136.94098,1006.8,-2.01,-7.75,yes,yes,yes,300434063387850,SIMB3,Dart,MOSAiC,North
2019-10-08T19:02:03Z,1570561324,2019,19,2,281.7931,281.7931,84.8243,136.862,1008.0,-2.0,-8.12,yes,yes,yes,300434063387850,SIMB3,Dart,MOSAiC,North
2019-10-08T23:01:23Z,1570575684,2019,23,1,281.9593,281.9593,84.82169,136.77088,1009.3,-2.02,-11.75,yes,yes,yes,300434063387850,SIMB3,Dart,MOSAiC,North
2019-10-09T03:02:26Z,1570590147,2019,3,2,282.1267,282.1267,84.81991,136.7372,1010.4,-2.03,-13.0,yes,yes,yes,300434063387850,SIMB3,Dart,MOSAiC,North
2019-10-09T07:01:55Z,1570604515,2019,7,1,282.293,282.293,84.8156,136.68011,1010.4,-2.03,-12.25,yes,yes,yes,300434063387850,SIMB3,Dart,MOSAiC,North
2019-10-09T11:01:32Z,1570618892,2019,11,1,282.4594,282.4594,84.81663,136.64034,1010.0,-2.03,-12.25,yes,yes,yes,300434063387850,SIMB3,Dart,MOSAiC,North
2019-10-09T15:01:35Z,1570633295,2019,15,1,282.6261,282.6261,84.82169,136.59886,1009.5,-2.05,-13.56,yes,yes,yes,300434063387850,SIMB3,Dart,MOSAiC,North
2019-10-09T19:02:21Z,1570647741,2019,19,2,282.7933,282.7933,84.8259,136.46501,1010.3,-2.02,-12.5,yes,yes,yes,300434063387850,SIMB3,Dart,MOSAiC,North
2019-10-09T23:01:23Z,1570662084,2019,23,1,282.9593,282.9593,84.83315,136.28155,1012.5,-2.02,-9.81,yes,yes,yes,300434063387850,SIMB3,Dart,MOSAiC,North
2019-10-10T03:02:26Z,1570676547,2019,3,2,283.1267,283.1267,84.83588,136.15706,1015.7,-2.05,-14.69,yes,yes,yes,300434063387850,SIMB3,Dart,MOSAiC,North
2019-10-10T07:02:47Z,1570690967,2019,7,2,283.2936,283.2936,84.83022,136.05608,1017.6,-2.03,-13.75,yes,yes,yes,300434063387850,SIMB3,Dart,MOSAiC,North
2019-10-10T11:01:32Z,1570705292,2019,11,1,283.4594,283.4594,84.82614,136.00264,1018.8,-2.03,-16.69,yes,yes,yes,300434063387850,SIMB3,Dart,MOSAiC,North
2019-10-10T15:01:52Z,1570719712,2019,15,1,283.6263,283.6263,84.81988,136.0872,1017.7,-2.03,-14.88,yes,yes,yes,300434063387850,SIMB3,Dart,MOSAiC,North
2019-10-10T19:01:46Z,1570734107,2019,19,1,283.7929,283.7929,84.80411,136.22547,1016.2,-2.0,-15.06,yes,yes,yes,300434063387850,SIMB3,Dart,MOSAiC,North
2019-10-10T23:01:06Z,1570748466,2019,23,1,283.9591,283.9591,84.78703,136.3049,1015.9,-2.01,-16.38,yes,yes,yes,300434063387850,SIMB3,Dart,MOSAiC,North
2019-10-11T03:02:00Z,1570762921,2019,3,2,284.1264,284.1264,84.77208,136.41064,1015.4,-2.03,-14.56,yes,yes,yes,300434063387850,SIMB3,Dart,MOSAiC,North
2019-10-11T07:01:29Z,1570777289,2019,7,1,284.2927,284.2927,84.75526,136.44456,1015.4,-2.03,-12.88,yes,yes,yes,300434063387850,SIMB3,Dart,MOSAiC,North
2019-10-11T11:01:14Z,1570791675,2019,11,1,284.4592,284.4592,84.74827,136.50262,1014.0,-2.03,-11.94,yes,yes,yes,300434063387850,SIMB3,Dart,MOSAiC,North
2019-10-11T15:01:17Z,1570806078,2019,15,1,284.6259,284.6259,84.74248,136.60147,1012.7,-2.04,-13.12,yes,yes,yes,300434063387850,SIMB3,Dart,MOSAiC,North
2019-10-11T19:01:55Z,1570820515,2019,19,1,284.793,284.793,84.74198,136.60958,1009.9,-2.03,-11.25,yes,yes,yes,300434063387850,SIMB3,Dart,MOSAiC,North
2019-10-11T23:02:24Z,1570834944,2019,23,2,284.96,284.96,84.75635,136.61589,1006.1,-2.01,-10.69,yes,yes,yes,300434063387850,SIMB3,Dart,MOSAiC,North
2019-10-12T03:02:09Z,1570849330,2019,3,2,285.1265,285.1265,84.76754,136.58995,1001.8,-2.01,-9.94,yes,yes,yes,300434063387850,SIMB3,Dart,MOSAiC,North
2019-10-12T07:01:29Z,1570863689,2019,7,1,285.2927,285.2927,84.77154,136.44282,1000.3,-2.03,-15.5,yes,yes,yes,300434063387850,SIMB3,Dart,MOSAiC,North
2019-10-12T11:01:14Z,1570878075,2019,11,1,285.4592,285.4592,84.77754,136.27797,1000.6,-2.05,-16.44,yes,yes,yes,300434063387850,SIMB3,Dart,MOSAiC,North
2019-10-12T15:00:51Z,1570892452,2019,15,0,285.6256,285.6256,84.7767,136.18189,1001.8,-2.05,-18.31,yes,yes,yes,300434063387850,SIMB3,Dart,MOSAiC,North
2019-10-12T19:02:03Z,1570906924,2019,19,2,285.7931,285.7931,84.77408,136.00082,1003.2,-2.05,-17.56,yes,yes,yes,300434063387850,SIMB3,Dart,MOSAiC,North
2019-10-12T23:01:14Z,1570921275,2019,23,1,285.9592,285.9592,84.77385,135.84232,1004.5,-2.01,-21.31,yes,yes,yes,300434063387850,SIMB3,Dart,MOSAiC,North
2019-10-13T03:01:35Z,1570935695,2019,3,1,286.1261,286.1261,84.76762,135.73509,1004.9,-2.02,-23.94,yes,yes,yes,300434063387850,SIMB3,Dart,MOSAiC,North
2019-10-13T07:01:29Z,1570950089,2019,7,1,286.2927,286.2927,84.76037,135.61147,1005.6,-2.04,-25.56,yes,yes,yes,300434063387850,SIMB3,Dart,MOSAiC,North
2019-10-13T11:01:14Z,1570964475,2019,11,1,286.4592,286.4592,84.75228,135.60227,1003.7,-2.05,-22.0,yes,yes,yes,300434063387850,SIMB3,Dart,MOSAiC,North
2019-10-13T15:01:00Z,1570978860,2019,15,1,286.6257,286.6257,84.73345,135.6311,1002.1,-2.04,-17.25,yes,yes,yes,300434063387850,SIMB3,Dart,MOSAiC,North
2019-10-13T19:01:46Z,1570993307,2019,19,1,286.7929,286.7929,84.71598,135.50794,1003.3,-2.03,-15.5,yes,yes,yes,300434063387850,SIMB3,Dart,MOSAiC,North
2019-10-13T23:01:06Z,1571007666,2019,23,1,286.9591,286.9591,84.70442,135.4063,1004.9,-2.05,-15.56,yes,yes,yes,300434063387850,SIMB3,Dart,MOSAiC,North
2019-10-14T03:01:26Z,1571022086,2019,3,1,287.126,287.126,84.6928,135.35301,1007.1,-2.03,-17.5,yes,yes,yes,300434063387850,SIMB3,Dart,MOSAiC,North
2019-10-14T07:01:37Z,1571036498,2019,7,1,287.2928,287.2928,84.6817,135.25616,1009.0,-2.03,-17.62,yes,yes,yes,300434063387850,SIMB3,Dart,MOSAiC,North
2019-10-14T11:01:14Z,1571050875,2019,11,1,287.4592,287.4592,84.6786,135.19638,1009.4,-2.05,-21.69,yes,yes,yes,300434063387850,SIMB3,Dart,MOSAiC,North
2019-10-14T15:01:09Z,1571065269,2019,15,1,287.6258,287.6258,84.67552,135.23008,1010.3,-2.01,-23.19,yes,yes,yes,300434063387850,SIMB3,Dart,MOSAiC,North
2019-10-14T19:01:55Z,1571079715,2019,19,1,287.793,287.793,84.67392,135.20382,1011.3,-2.04,-24.25,yes,yes,yes,300434063387850,SIMB3,Dart,MOSAiC,North
2019-10-14T23:02:41Z,1571094161,2019,23,2,287.9602,287.9602,84.67822,135.17117,1012.1,-2.01,-23.62,yes,yes,yes,300434063387850,SIMB3,Dart,MOSAiC,North
2019-10-15T03:01:35Z,1571108495,2019,3,1,288.1261,288.1261,84.67959,135.17888,1013.8,-2.04,-25.12,yes,yes,yes,300434063387850,SIMB3,Dart,MOSAiC,North
2019-10-15T07:01:37Z,1571122898,2019,7,1,288.2928,288.2928,84.67942,135.10109,1015.0,-2.05,-25.12,yes,yes,yes,300434063387850,SIMB3,Dart,MOSAiC,North
2019-10-15T11:01:32Z,1571137292,2019,11,1,288.4594,288.4594,84.68305,135.0227,1016.0,-2.05,-21.31,yes,yes,yes,300434063387850,SIMB3,Dart,MOSAiC,North
2019-10-15T15:01:26Z,1571151686,2019,15,1,288.626,288.626,84.68342,134.95658,1016.6,-2.03,-17.12,yes,yes,yes,300434063387850,SIMB3,Dart,MOSAiC,North
2019-10-15T19:01:37Z,1571166098,2019,19,1,288.7928,288.7928,84.68188,134.74085,1017.2,-2.05,-15.75,yes,yes,yes,300434063387850,SIMB3,Dart,MOSAiC,North
2019-10-15T23:02:49Z,1571180570,2019,23,2,288.9603,288.9603,84.6848,134.55942,1017.3,-2.05,-16.0,yes,yes,yes,300434063387850,SIMB3,Dart,MOSAiC,North
2019-10-16T03:02:44Z,1571194964,2019,3,2,289.1269,289.1269,84.68202,134.45758,1017.5,-2.03,-18.06,yes,yes,yes,300434063387850,SIMB3,Dart,MOSAiC,North
2019-10-16T07:01:37Z,1571209298,2019,7,1,289.2928,289.2928,84.67874,134.28371,1017.4,-2.03,-16.25,yes,yes,yes,300434063387850,SIMB3,Dart,MOSAiC,North
2019-10-16T11:01:32Z,1571223692,2019,11,1,289.4594,289.4594,84.68154,134.12798,1016.2,-2.01,-13.94,yes,yes,yes,300434063387850,SIMB3,Dart,MOSAiC,North
2019-10-16T15:01:26Z,1571238086,2019,15,1,289.626,289.626,84.67982,134.04837,1015.2,-2.05,-12.94,yes,yes,yes,300434063387850,SIMB3,Dart,MOSAiC,North
2019-10-16T19:01:55Z,1571252515,2019,19,1,289.793,289.793,84.67562,133.90202,1013.8,-2.08,-11.88,yes,yes,yes,300434063387850,SIMB3,Dart,MOSAiC,North
2019-10-16T23:01:14Z,1571266875,2019,23,1,289.9592,289.9592,84.6751,133.75795,1012.8,-2.05,-12.31,yes,yes,yes,300434063387850,SIMB3,Dart,MOSAiC,North
2019-10-17T03:01:26Z,1571281286,2019,3,1,290.126,290.126,84.67362,133.73845,1012.3,-2.03,-12.81,yes,yes,yes,300434063387850,SIMB3,Dart,MOSAiC,North
2019-10-17T07:01:46Z,1571295707,2019,7,1,290.2929,290.2929,84.66955,133.69538,1012.1,-2.08,-13.19,yes,yes,yes,300434063387850,SIMB3,Dart,MOSAiC,North
2019-10-17T11:01:23Z,1571310084,2019,11,1,290.4593,290.4593,84.67082,133.69255,1012.1,-2.05,-13.62,yes,yes,yes,300434063387850,SIMB3,Dart,MOSAiC,North
2019-10-17T15:01:26Z,1571324486,2019,15,1,290.626,290.626,84.67328,133.77466,1012.2,-2.05,-13.81,yes,yes,yes,300434063387850,SIMB3,Dart,MOSAiC,North
2019-10-17T19:01:37Z,1571338898,2019,19,1,290.7928,290.7928,84.6799,133.79831,1012.7,-2.03,-14.5,yes,yes,yes,300434063387850,SIMB3,Dart,MOSAiC,North
2019-10-17T23:02:15Z,1571353335,2019,23,2,290.9599,290.9599,84.69617,133.83038,1012.8,-2.03,-16.19,yes,yes,yes,300434063387850,SIMB3,Dart,MOSAiC,North
2019-10-18T03:01:35Z,1571367695,2019,3,1,291.1261,291.1261,84.71228,133.914,1012.9,-2.03,-16.81,yes,yes,yes,300434063387850,SIMB3,Dart,MOSAiC,North
2019-10-18T07:01:55Z,1571382115,2019,7,1,291.293,291.293,84.73049,133.92384,1012.9,-2.05,-15.31,yes,yes,yes,300434063387850,SIMB3,Dart,MOSAiC,North
2019-10-18T11:01:40Z,1571396501,2019,11,1,291.4595,291.4595,84.75646,133.95409,1012.5,-2.05,-14.81,yes,yes,yes,300434063387850,SIMB3,Dart,MOSAiC,North
2019-10-18T15:01:26Z,1571410886,2019,15,1,291.626,291.626,84.77919,134.04399,1012.5,-2.05,-15.0,yes,yes,yes,300434063387850,SIMB3,Dart,MOSAiC,North
2019-10-18T19:02:03Z,1571425324,2019,19,2,291.7931,291.7931,84.79928,134.04421,1013.0,-2.05,-15.31,yes,yes,yes,300434063387850,SIMB3,Dart,MOSAiC,North
2019-10-18T23:02:15Z,1571439735,2019,23,2,291.9599,291.9599,84.81882,134.0294,1013.3,-2.08,-17.75,yes,yes,yes,300434063387850,SIMB3,Dart,MOSAiC,North
2019-10-19T03:02:09Z,1571454130,2019,3,2,292.1265,292.1265,84.82881,134.01439,1013.3,-2.05,-19.69,yes,yes,yes,300434063387850,SIMB3,Dart,MOSAiC,North
2019-10-19T07:01:46Z,1571468507,2019,7,1,292.2929,292.2929,84.83949,133.92418,1012.6,-2.05,-12.69,yes,yes,yes,300434063387850,SIMB3,Dart,MOSAiC,North
2019-10-19T11:01:06Z,1571482866,2019,11,1,292.4591,292.4591,84.85436,133.83562,1011.3,-2.05,-13.38,yes,yes,yes,300434063387850,SIMB3,Dart,MOSAiC,North
2019-10-19T15:01:26Z,1571497286,2019,15,1,292.626,292.626,84.86031,133.77862,1010.2,-2.05,-10.44,yes,yes,yes,300434063387850,SIMB3,Dart,MOSAiC,North
2019-10-19T19:01:29Z,1571511689,2019,19,1,292.7927,292.7927,84.86534,133.68135,1008.7,-2.05,-13.31,yes,yes,yes,300434063387850,SIMB3,Dart,MOSAiC,North
2019-10-19T23:01:14Z,1571526075,2019,23,1,292.9592,292.9592,84.87711,133.6091,1007.4,-2.05,-13.44,yes,yes,yes,300434063387850,SIMB3,Dart,MOSAiC,North
2019-10-20T03:01:17Z,1571540478,2019,3,1,293.1259,293.1259,84.88637,133.58902,1006.8,-2.08,-12.81,yes,yes,yes,300434063387850,SIMB3,Dart,MOSAiC,North
2019-10-20T07:01:29Z,1571554889,2019,7,1,293.2927,293.2927,84.89716,133.54309,1006.3,-2.05,-14.56,yes,yes,yes,300434063387850,SIMB3,Dart,MOSAiC,North
2019-10-20T11:01:23Z,1571569284,2019,11,1,293.4593,293.4593,84.91577,133.54848,1006.7,-2.05,-9.56,yes,yes,yes,300434063387850,SIMB3,Dart,MOSAiC,North
2019-10-20T15:01:09Z,1571583669,2019,15,1,293.6258,293.6258,84.93222,133.68387,1009.8,-2.08,-15.62,yes,yes,yes,300434063387850,SIMB3,Dart,MOSAiC,North
2019-10-20T19:01:29Z,1571598089,2019,19,1,293.7927,293.7927,84.94978,133.6757,1010.9,-2.05,-10.5,yes,yes,yes,300434063387850,SIMB3,Dart,MOSAiC,North
2019-10-20T23:01:32Z,1571612492,2019,23,1,293.9594,293.9594,84.98104,133.64072,1012.0,-2.05,-9.12,yes,yes,yes,300434063387850,SIMB3,Dart,MOSAiC,North
2019-10-21T03:01:17Z,1571626878,2019,3,1,294.1259,294.1259,85.00354,133.60201,1012.7,-2.05,-10.06,yes,yes,yes,300434063387850,SIMB3,Dart,MOSAiC,North
2019-10-21T07:01:37Z,1571641298,2019,7,1,294.2928,294.2928,85.02735,133.4311,1013.2,-2.03,-9.31,yes,yes,yes,300434063387850,SIMB3,Dart,MOSAiC,North
2019-10-21T11:01:14Z,1571655675,2019,11,1,294.4592,294.4592,85.05709,133.25406,1013.0,-2.08,-8.62,yes,yes,yes,300434063387850,SIMB3,Dart,MOSAiC,North
2019-10-21T15:01:17Z,1571670078,2019,15,1,294.6259,294.6259,85.08003,133.09414,1013.0,-2.03,-8.0,yes,yes,yes,300434063387850,SIMB3,Dart,MOSAiC,North
2019-10-21T19:01:55Z,1571684515,2019,19,1,294.793,294.793,85.10645,132.86743,1013.4,-2.05,-7.06,yes,yes,yes,300434063387850,SIMB3,Dart,MOSAiC,North
2019-10-21T23:02:24Z,1571698944,2019,23,2,294.96,294.96,85.13914,132.65318,1013.9,-2.05,-6.81,yes,yes,yes,300434063387850,SIMB3,Dart,MOSAiC,North
2019-10-22T03:03:44Z,1571713425,2019,3,3,295.1276,295.1276,85.16432,132.44146,1014.3,-2.05,-7.88,yes,yes,yes,300434063387850,SIMB3,Dart,MOSAiC,North
2019-10-22T07:01:37Z,1571727698,2019,7,1,295.2928,295.2928,85.18282,132.16594,1014.2,-2.03,-9.06,yes,yes,yes,300434063387850,SIMB3,Dart,MOSAiC,North
2019-10-22T11:01:23Z,1571742084,2019,11,1,295.4593,295.4593,85.20216,131.90294,1013.3,-2.05,-9.44,yes,yes,yes,300434063387850,SIMB3,Dart,MOSAiC,North
2019-10-22T15:01:17Z,1571756478,2019,15,1,295.6259,295.6259,85.21826,131.69058,1013.5,-2.04,-8.75,yes,yes,yes,300434063387850,SIMB3,Dart,MOSAiC,North
2019-10-22T19:02:03Z,1571770924,2019,19,2,295.7931,295.7931,85.23146,131.4527,1013.9,-2.05,-9.19,yes,yes,yes,300434063387850,SIMB3,Dart,MOSAiC,North
2019-10-22T23:01:06Z,1571785266,2019,23,1,295.9591,295.9591,85.2459,131.21594,1014.4,-2.04,-10.25,yes,yes,yes,300434063387850,SIMB3,Dart,MOSAiC,North
2019-10-23T03:01:35Z,1571799695,2019,3,1,296.1261,296.1261,85.2549,131.0246,1014.7,-2.03,-11.62,yes,yes,yes,300434063387850,SIMB3,Dart,MOSAiC,North
2019-10-23T07:02:21Z,1571814141,2019,7,2,296.2933,296.2933,85.26123,130.85213,1015.4,-2.05,-15.94,yes,yes,yes,300434063387850,SIMB3,Dart,MOSAiC,North
2019-10-23T11:01:40Z,1571828501,2019,11,1,296.4595,296.4595,85.26956,130.72896,1015.1,-2.05,-12.0,yes,yes,yes,300434063387850,SIMB3,Dart,MOSAiC,North
2019-10-23T15:01:26Z,1571842886,2019,15,1,296.626,296.626,85.27634,130.62724,1014.9,-2.02,-12.94,yes,yes,yes,300434063387850,SIMB3,Dart,MOSAiC,North
2019-10-23T19:01:46Z,1571857307,2019,19,1,296.7929,296.7929,85.28444,130.48214,1014.6,-2.05,-14.0,yes,yes,yes,300434063387850,SIMB3,Dart,MOSAiC,North
2019-10-23T23:01:49Z,1571871709,2019,23,1,296.9596,296.9596,85.29888,130.34515,1014.2,-2.03,-11.62,yes,yes,yes,300434063387850,SIMB3,Dart,MOSAiC,North
2019-10-24T03:03:01Z,1571886181,2019,3,2,297.1271,297.1271,85.31226,130.20862,1013.2,-2.03,-12.12,yes,yes,yes,300434063387850,SIMB3,Dart,MOSAiC,North
2019-10-24T07:01:20Z,1571900481,2019,7,1,297.2926,297.2926,85.32378,130.01129,1012.6,-2.03,-13.19,yes,yes,yes,300434063387850,SIMB3,Dart,MOSAiC,North
2019-10-24T11:01:23Z,1571914884,2019,11,1,297.4593,297.4593,85.34014,129.79766,1011.7,-2.05,-12.56,yes,yes,yes,300434063387850,SIMB3,Dart,MOSAiC,North
2019-10-24T15:01:43Z,1571929304,2019,15,1,297.6262,297.6262,85.35197,129.63591,1011.6,-2.05,-16.75,yes,yes,yes,300434063387850,SIMB3,Dart,MOSAiC,North
2019-10-24T19:01:37Z,1571943698,2019,19,1,297.7928,297.7928,85.36049,129.41057,1010.8,-2.03,-15.12,yes,yes,yes,300434063387850,SIMB3,Dart,MOSAiC,North
2019-10-24T23:02:24Z,1571958144,2019,23,2,297.96,297.96,85.36888,129.2359,1010.6,-2.05,-16.88,yes,yes,yes,300434063387850,SIMB3,Dart,MOSAiC,North
2019-10-25T03:01:17Z,1571972478,2019,3,1,298.1259,298.1259,85.37197,129.14301,1011.5,-2.05,-21.38,yes,yes,yes,300434063387850,SIMB3,Dart,MOSAiC,North
2019-10-25T07:01:29Z,1571986889,2019,7,1,298.2927,298.2927,85.37356,129.01918,1012.3,-2.03,-23.5,yes,yes,yes,300434063387850,SIMB3,Dart,MOSAiC,North
2019-10-25T11:01:58Z,1572001318,2019,11,1,298.4597,298.4597,85.37664,128.91842,1012.9,-2.04,-22.12,yes,yes,yes,300434063387850,SIMB3,Dart,MOSAiC,North
2019-10-25T15:01:26Z,1572015686,2019,15,1,298.626,298.626,85.37768,128.8345,1013.8,-2.03,-19.0,yes,yes,yes,300434063387850,SIMB3,Dart,MOSAiC,North
2019-10-25T19:01:55Z,1572030115,2019,19,1,298.793,298.793,85.3776,128.73598,1014.8,-2.05,-23.38,yes,yes,yes,300434063387850,SIMB3,Dart,MOSAiC,North
2019-10-25T23:01:06Z,1572044466,2019,23,1,298.9591,298.9591,85.37988,128.65964,1016.1,-2.05,-23.44,yes,yes,yes,300434063387850,SIMB3,Dart,MOSAiC,North
2019-10-26T03:01:17Z,1572058878,2019,3,1,299.1259,299.1259,85.38138,128.6063,1017.6,-2.05,-23.06,yes,yes,yes,300434063387850,SIMB3,Dart,MOSAiC,North
2019-10-26T07:02:29Z,1572073350,2019,7,2,299.2934,299.2934,85.38305,128.50918,1019.1,-2.05,-25.06,yes,yes,yes,300434063387850,SIMB3,Dart,MOSAiC,North
2019-10-26T11:01:06Z,1572087666,2019,11,1,299.4591,299.4591,85.38756,128.42249,1020.9,-2.05,-27.19,yes,yes,yes,300434063387850,SIMB3,Dart,MOSAiC,North
2019-10-26T15:01:17Z,1572102078,2019,15,1,299.6259,299.6259,85.39194,128.36206,1022.4,-2.03,-26.0,yes,yes,yes,300434063387850,SIMB3,Dart,MOSAiC,North
2019-10-26T19:01:20Z,1572116481,2019,19,1,299.7926,299.7926,85.39732,128.26161,1023.7,-2.05,-26.88,yes,yes,yes,300434063387850,SIMB3,Dart,MOSAiC,North
2019-10-26T23:02:06Z,1572130927,2019,23,2,299.9598,299.9598,85.40621,128.16617,1025.0,-2.05,-27.31,yes,yes,yes,300434063387850,SIMB3,Dart,MOSAiC,North
2019-10-27T03:01:43Z,1572145304,2019,3,1,300.1262,300.1262,85.41522,128.09349,1025.9,-2.05,-26.81,yes,yes,yes,300434063387850,SIMB3,Dart,MOSAiC,North
2019-10-27T07:01:20Z,1572159681,2019,7,1,300.2926,300.2926,85.42448,127.99146,1027.1,-2.05,-26.69,yes,yes,yes,300434063387850,SIMB3,Dart,MOSAiC,North
2019-10-27T11:01:06Z,1572174066,2019,11,1,300.4591,300.4591,85.43648,127.9003,1027.9,-2.08,-26.12,yes,yes,yes,300434063387850,SIMB3,Dart,MOSAiC,North
2019-10-27T15:01:00Z,1572188460,2019,15,1,300.6257,300.6257,85.44939,127.81675,1028.4,-2.03,-24.38,yes,yes,yes,300434063387850,SIMB3,Dart,MOSAiC,North
2019-10-27T19:01:20Z,1572202881,2019,19,1,300.7926,300.7926,85.46411,127.66881,1028.7,-2.03,-19.25,yes,yes,yes,300434063387850,SIMB3,Dart,MOSAiC,North
2019-10-27T23:02:06Z,1572217327,2019,23,2,300.9598,300.9598,85.48204,127.52601,1028.7,-2.08,-15.31,yes,yes,yes,300434063387850,SIMB3,Dart,MOSAiC,North
2019-10-28T03:01:17Z,1572231678,2019,3,1,301.1259,301.1259,85.4995,127.42694,1029.8,-2.05,-14.0,yes,yes,yes,300434063387850,SIMB3,Dart,MOSAiC,North
2019-10-28T07:01:12Z,1572246072,2019,7,1,301.2925,301.2925,85.51653,127.30558,1031.3,-2.03,-15.06,yes,yes,yes,300434063387850,SIMB3,Dart,MOSAiC,North
2019-10-28T11:02:32Z,1572260553,2019,11,2,301.4601,301.4601,85.5319,127.19406,1031.4,-2.05,-12.44,yes,yes,yes,300434063387850,SIMB3,Dart,MOSAiC,North
2019-10-28T15:01:26Z,1572274886,2019,15,1,301.626,301.626,85.54461,127.06891,1031.4,-2.05,-12.5,yes,yes,yes,300434063387850,SIMB3,Dart,MOSAiC,North
2019-10-28T19:01:37Z,1572289298,2019,19,1,301.7928,301.7928,85.55754,126.88341,1031.5,-2.05,-16.69,yes,yes,yes,300434063387850,SIMB3,Dart,MOSAiC,North
2019-10-28T23:01:06Z,1572303666,2019,23,1,301.9591,301.9591,85.57079,126.71877,1031.1,-2.03,-15.62,yes,yes,yes,300434063387850,SIMB3,Dart,MOSAiC,North
2019-10-29T03:01:26Z,1572318086,2019,3,1,302.126,302.126,85.58117,126.5709,1031.1,-2.04,-20.5,yes,yes,yes,300434063387850,SIMB3,Dart,MOSAiC,North
2019-10-29T07:03:12Z,1572332593,2019,7,3,302.2939,302.2939,85.59316,126.37281,1030.6,-2.05,-21.94,yes,yes,yes,300434063387850,SIMB3,Dart,MOSAiC,North
2019-10-29T11:01:14Z,1572346875,2019,11,1,302.4592,302.4592,85.60566,126.2163,1030.4,-2.08,-19.0,yes,yes,yes,300434063387850,SIMB3,Dart,MOSAiC,North
2019-10-29T15:01:35Z,1572361295,2019,15,1,302.6261,302.6261,85.61489,126.08022,1031.0,-2.05,-20.0,yes,yes,yes,300434063387850,SIMB3,Dart,MOSAiC,North
2019-10-29T19:01:37Z,1572375698,2019,19,1,302.7928,302.7928,85.62538,125.90599,1030.7,-2.05,-19.06,yes,yes,yes,300434063387850,SIMB3,Dart,MOSAiC,North
2019-10-29T23:02:15Z,1572390135,2019,23,2,302.9599,302.9599,85.63669,125.75789,1030.8,-2.05,-15.56,yes,yes,yes,300434063387850,SIMB3,Dart,MOSAiC,North
2019-10-30T03:01:26Z,1572404486,2019,3,1,303.126,303.126,85.64491,125.62258,1031.1,-2.05,-16.19,yes,yes,yes,300434063387850,SIMB3,Dart,MOSAiC,North
2019-10-30T07:01:37Z,1572418898,2019,7,1,303.2928,303.2928,85.65456,125.44626,1030.8,-2.05,-15.88,yes,yes,yes,300434063387850,SIMB3,Dart,MOSAiC,North
2019-10-30T11:01:32Z,1572433292,2019,11,1,303.4594,303.4594,85.66361,125.31365,1030.9,-2.08,-17.06,yes,yes,yes,300434063387850,SIMB3,Dart,MOSAiC,North
2019-10-30T15:01:26Z,1572447686,2019,15,1,303.626,303.626,85.66925,125.18084,1031.5,-2.08,-22.12,yes,yes,yes,300434063387850,SIMB3,Dart,MOSAiC,North
2019-10-30T19:01:46Z,1572462107,2019,19,1,303.7929,303.7929,85.67814,125.00706,1031.4,-2.05,-20.75,yes,yes,yes,300434063387850,SIMB3,Dart,MOSAiC,North
2019-10-30T23:02:32Z,1572476553,2019,23,2,303.9601,303.9601,85.68704,124.87261,1031.9,-2.08,-21.38,yes,yes,yes,300434063387850,SIMB3,Dart,MOSAiC,North
2019-10-31T03:01:43Z,1572490904,2019,3,1,304.1262,304.1262,85.69314,124.75807,1032.3,-2.05,-21.06,yes,yes,yes,300434063387850,SIMB3,Dart,MOSAiC,North
2019-10-31T07:01:29Z,1572505289,2019,7,1,304.2927,304.2927,85.70174,124.61901,1032.0,-2.05,-22.31,yes,yes,yes,300434063387850,SIMB3,Dart,MOSAiC,North
2019-10-31T11:01:40Z,1572519701,2019,11,1,304.4595,304.4595,85.70994,124.51359,1031.9,-2.08,-22.19,yes,yes,yes,300434063387850,SIMB3,Dart,MOSAiC,North
2019-10-31T15:01:35Z,1572534095,2019,15,1,304.6261,304.6261,85.71547,124.41362,1031.8,-2.08,-22.75,yes,yes,yes,300434063387850,SIMB3,Dart,MOSAiC,North
2019-10-31T19:01:55Z,1572548515,2019,19,1,304.793,304.793,85.72399,124.28399,1031.4,-2.08,-20.88,yes,yes,yes,300434063387850,SIMB3,Dart,MOSAiC,North
2019-10-31T23:01:23Z,1572562884,2019,23,1,304.9593,304.9593,85.73328,124.19315,1031.1,-2.05,-18.94,yes,yes,yes,300434063387850,SIMB3,Dart,MOSAiC,North
2019-11-01T03:01:17Z,1572577278,2019,3,1,305.1259,305.1259,85.7397,124.12086,1031.6,-2.05,-17.88,yes,yes,yes,300434063387850,SIMB3,Dart,MOSAiC,North
2019-11-01T07:03:21Z,1572591802,2019,7,3,305.294,305.294,85.74852,124.03244,1032.1,-2.08,-18.44,yes,yes,yes,300434063387850,SIMB3,Dart,MOSAiC,North
2019-11-01T11:01:23Z,1572606084,2019,11,1,305.4593,305.4593,85.75636,123.98812,1032.7,-2.05,-18.56,yes,yes,yes,300434063387850,SIMB3,Dart,MOSAiC,North
2019-11-01T15:01:35Z,1572620495,2019,15,1,305.6261,305.6261,85.76,123.9466,1033.0,-2.05,-18.44,yes,yes,yes,300434063387850,SIMB3,Dart,MOSAiC,North
2019-11-01T19:01:46Z,1572634907,2019,19,1,305.7929,305.7929,85.76606,123.87034,1033.5,-2.08,-18.81,yes,yes,yes,300434063387850,SIMB3,Dart,MOSAiC,North
2019-11-01T23:02:06Z,1572649327,2019,23,2,305.9598,305.9598,85.77346,123.81782,1033.7,-2.05,-21.0,yes,yes,yes,300434063387850,SIMB3,Dart,MOSAiC,North
2019-11-02T03:01:09Z,1572663669,2019,3,1,306.1258,306.1258,85.77703,123.75058,1033.9,-2.05,-23.44,yes,yes,yes,300434063387850,SIMB3,Dart,MOSAiC,North